<?xml version="1.0" encoding="UTF-8" standalone="no" ?>
<gpx xmlns="http://www.topografix.com/GPX/1/1" xmlns:xsi="http://www.w3.org/2001/XMLSchema-instance" xsi:schemaLocation="http://www.topografix.com/GPX/1/1 http://www.topografix.com/GPX/1/1/gpx.xsd" version="1.1" creator="VisuGPX - https://www.visugpx.com">
  <metadata>
    <name>Tréminis Chichilianne MAJ</name>
  </metadata>
  <trk>
    <name><![CDATA[ColduFauMazzili]]></name>
    <trkseg>
      <trkpt lat="44.90631" lon="5.62611">
        <ele>901</ele>
        <time>2004-07-26T16:50:38Z</time>
      </trkpt>
      <trkpt lat="44.90593" lon="5.62685">
        <ele>909</ele>
        <time>2004-07-26T16:50:38Z</time>
      </trkpt>
      <trkpt lat="44.90547" lon="5.62781">
        <ele>919</ele>
        <time>2004-07-26T16:50:38Z</time>
      </trkpt>
      <trkpt lat="44.90515" lon="5.62877">
        <ele>929</ele>
        <time>2004-07-26T16:50:38Z</time>
      </trkpt>
      <trkpt lat="44.90455" lon="5.62994">
        <ele>937</ele>
        <time>2004-07-26T16:50:38Z</time>
      </trkpt>
      <trkpt lat="44.90411" lon="5.63058">
        <ele>936</ele>
        <time>2004-07-26T16:50:38Z</time>
      </trkpt>
      <trkpt lat="44.9026" lon="5.63144">
        <ele>940</ele>
        <time>2004-07-26T16:50:38Z</time>
      </trkpt>
      <trkpt lat="44.90211" lon="5.63188">
        <ele>940</ele>
        <time>2004-07-26T16:50:38Z</time>
      </trkpt>
      <trkpt lat="44.90152" lon="5.63299">
        <ele>943</ele>
        <time>2004-07-26T16:50:38Z</time>
      </trkpt>
      <trkpt lat="44.90091" lon="5.63444">
        <ele>949</ele>
        <time>2004-07-26T16:50:38Z</time>
      </trkpt>
      <trkpt lat="44.90078" lon="5.63516">
        <ele>955</ele>
        <time>2004-07-26T16:50:38Z</time>
      </trkpt>
      <trkpt lat="44.89991" lon="5.63631">
        <ele>969</ele>
        <time>2004-07-26T16:50:38Z</time>
      </trkpt>
      <trkpt lat="44.89914" lon="5.63725">
        <ele>976</ele>
        <time>2004-07-26T16:50:38Z</time>
      </trkpt>
      <trkpt lat="44.89784" lon="5.63857">
        <ele>958</ele>
        <time>2004-07-26T16:50:38Z</time>
      </trkpt>
      <trkpt lat="44.89734" lon="5.6393">
        <ele>949</ele>
        <time>2004-07-26T16:50:38Z</time>
      </trkpt>
      <trkpt lat="44.8968" lon="5.64022">
        <ele>952</ele>
        <time>2004-07-26T16:50:38Z</time>
      </trkpt>
      <trkpt lat="44.89648" lon="5.64105">
        <ele>964</ele>
        <time>2004-07-26T16:50:38Z</time>
      </trkpt>
      <trkpt lat="44.89643" lon="5.6419">
        <ele>961</ele>
        <time>2004-07-26T16:50:38Z</time>
      </trkpt>
      <trkpt lat="44.89607" lon="5.64283">
        <ele>963</ele>
        <time>2004-07-26T16:50:38Z</time>
      </trkpt>
      <trkpt lat="44.89526" lon="5.64411">
        <ele>966</ele>
        <time>2004-07-26T16:50:38Z</time>
      </trkpt>
      <trkpt lat="44.89493" lon="5.64489">
        <ele>972</ele>
        <time>2004-07-26T16:50:38Z</time>
      </trkpt>
      <trkpt lat="44.89489" lon="5.64612">
        <ele>977</ele>
        <time>2004-07-26T16:50:38Z</time>
      </trkpt>
      <trkpt lat="44.89502" lon="5.64698">
        <ele>971</ele>
        <time>2004-07-26T16:50:38Z</time>
      </trkpt>
      <trkpt lat="44.89485" lon="5.64754">
        <ele>965</ele>
        <time>2004-07-26T16:50:38Z</time>
      </trkpt>
      <trkpt lat="44.8942" lon="5.64801">
        <ele>955</ele>
        <time>2004-07-26T16:50:38Z</time>
      </trkpt>
      <trkpt lat="44.89343" lon="5.64819">
        <ele>956</ele>
        <time>2004-07-26T16:50:38Z</time>
      </trkpt>
      <trkpt lat="44.89211" lon="5.64877">
        <ele>960</ele>
        <time>2004-07-26T16:50:38Z</time>
      </trkpt>
      <trkpt lat="44.89106" lon="5.64918">
        <ele>970</ele>
        <time>2004-07-26T16:50:38Z</time>
      </trkpt>
      <trkpt lat="44.89084" lon="5.64974">
        <ele>965</ele>
        <time>2004-07-26T16:50:38Z</time>
      </trkpt>
      <trkpt lat="44.89039" lon="5.65038">
        <ele>972</ele>
        <time>2004-07-26T16:50:38Z</time>
      </trkpt>
      <trkpt lat="44.8905" lon="5.65124">
        <ele>980</ele>
        <time>2004-07-26T16:50:38Z</time>
      </trkpt>
      <trkpt lat="44.89082" lon="5.6518">
        <ele>974</ele>
        <time>2004-07-26T16:50:38Z</time>
      </trkpt>
      <trkpt lat="44.89109" lon="5.65257">
        <ele>969</ele>
        <time>2004-07-26T16:50:38Z</time>
      </trkpt>
      <trkpt lat="44.89125" lon="5.65328">
        <ele>960</ele>
        <time>2004-07-26T16:50:38Z</time>
      </trkpt>
      <trkpt lat="44.89108" lon="5.65365">
        <ele>955</ele>
        <time>2004-07-26T16:50:38Z</time>
      </trkpt>
      <trkpt lat="44.8902" lon="5.65448">
        <ele>959</ele>
        <time>2004-07-26T16:50:38Z</time>
      </trkpt>
      <trkpt lat="44.88961" lon="5.65546">
        <ele>955</ele>
        <time>2004-07-26T16:50:38Z</time>
      </trkpt>
      <trkpt lat="44.88882" lon="5.65643">
        <ele>943</ele>
        <time>2004-07-26T16:50:38Z</time>
      </trkpt>
      <trkpt lat="44.88806" lon="5.65698">
        <ele>931</ele>
        <time>2004-07-26T16:50:38Z</time>
      </trkpt>
      <trkpt lat="44.88727" lon="5.65776">
        <ele>922</ele>
        <time>2004-07-26T16:50:38Z</time>
      </trkpt>
      <trkpt lat="44.88657" lon="5.65845">
        <ele>921</ele>
        <time>2004-07-26T16:50:38Z</time>
      </trkpt>
      <trkpt lat="44.88568" lon="5.6596">
        <ele>909</ele>
        <time>2004-07-26T16:50:38Z</time>
      </trkpt>
      <trkpt lat="44.88554" lon="5.66">
        <ele>901</ele>
        <time>2004-07-26T16:50:38Z</time>
      </trkpt>
      <trkpt lat="44.88457" lon="5.65991">
        <ele>928</ele>
        <time>2004-07-26T16:50:38Z</time>
      </trkpt>
      <trkpt lat="44.88437" lon="5.65917">
        <ele>945</ele>
        <time>2004-07-26T16:50:38Z</time>
      </trkpt>
      <trkpt lat="44.88341" lon="5.66038">
        <ele>956</ele>
        <time>2004-07-26T16:50:38Z</time>
      </trkpt>
      <trkpt lat="44.88253" lon="5.66134">
        <ele>959</ele>
        <time>2004-07-26T16:50:38Z</time>
      </trkpt>
      <trkpt lat="44.88154" lon="5.66201">
        <ele>954</ele>
        <time>2004-07-26T16:50:38Z</time>
      </trkpt>
      <trkpt lat="44.88109" lon="5.66205">
        <ele>955</ele>
        <time>2004-07-26T16:50:38Z</time>
      </trkpt>
      <trkpt lat="44.87995" lon="5.66233">
        <ele>928</ele>
        <time>2004-07-26T16:50:38Z</time>
      </trkpt>
      <trkpt lat="44.87862" lon="5.66244">
        <ele>888</ele>
        <time>2004-07-26T16:50:38Z</time>
      </trkpt>
      <trkpt lat="44.87757" lon="5.66231">
        <ele>864</ele>
        <time>2004-07-26T16:50:38Z</time>
      </trkpt>
      <trkpt lat="44.87683" lon="5.66205">
        <ele>850</ele>
        <time>2004-07-26T16:50:38Z</time>
      </trkpt>
      <trkpt lat="44.8764" lon="5.66155">
        <ele>845</ele>
        <time>2004-07-26T16:50:38Z</time>
      </trkpt>
      <trkpt lat="44.87558" lon="5.66121">
        <ele>828</ele>
        <time>2004-07-26T16:50:38Z</time>
      </trkpt>
      <trkpt lat="44.87472" lon="5.6611">
        <ele>812</ele>
        <time>2004-07-26T16:50:38Z</time>
      </trkpt>
      <trkpt lat="44.87405" lon="5.66118">
        <ele>802</ele>
        <time>2004-07-26T16:50:38Z</time>
      </trkpt>
      <trkpt lat="44.87454" lon="5.65976">
        <ele>796</ele>
        <time>2004-07-26T16:50:38Z</time>
      </trkpt>
      <trkpt lat="44.87542" lon="5.65807">
        <ele>783</ele>
        <time>2004-07-26T16:50:38Z</time>
      </trkpt>
      <trkpt lat="44.87617" lon="5.65783">
        <ele>790</ele>
        <time>2004-07-26T16:50:38Z</time>
      </trkpt>
      <trkpt lat="44.87699" lon="5.65772">
        <ele>800</ele>
        <time>2004-07-26T16:50:38Z</time>
      </trkpt>
      <trkpt lat="44.87736" lon="5.65714">
        <ele>795</ele>
        <time>2004-07-26T16:50:38Z</time>
      </trkpt>
      <trkpt lat="44.87733" lon="5.65603">
        <ele>783</ele>
        <time>2004-07-26T16:50:38Z</time>
      </trkpt>
      <trkpt lat="44.87735" lon="5.65534">
        <ele>784</ele>
        <time>2004-07-26T16:50:38Z</time>
      </trkpt>
      <trkpt lat="44.87727" lon="5.65438">
        <ele>781</ele>
        <time>2004-07-26T16:50:38Z</time>
      </trkpt>
    </trkseg>
  </trk>
</gpx>